Location: Linton
(52.0943°N, 0.2848°E)
Time: 11:55:29
(UTC+00:00)

Amateur Radio Satellites - All Passes

Search period start: 18 January 2018 11:25
Search period end: 19 January 2018 11:25
Location: Linton, 52.0943°N, 0.2848°E

Satellite Date Start Highest point End Downlink Frequencies (MHz)
Time Altitude Azimuth
Gurwin Techsat 1B 18 Jan 11:30:04 11:34:30 28° 59° (ENE) 11:38:56 435.225
Max Valier Satellite 18 Jan 11:33:08 11:34:59 13° 302° (WNW) 11:36:48 145.860
POLYITAN 1 18 Jan 11:45:10 11:49:02 34° 264° (W) 11:52:56 437.675
BEESAT 3 18 Jan 11:46:19 11:50:13 53° 318° (NW) 11:54:09 437.485
LO-87 18 Jan 11:54:27 11:58:01 53° 289° (WNW) 12:01:34 145.935 - 145.965
EO-88 18 Jan 12:00:49 12:01:22 10° 304° (NW) 12:01:54 145.990 - 145.960
SO-50 18 Jan 12:03:40 12:07:27 24° 22° (NNE) 12:11:16 436.795
NANOSAT C BR1 18 Jan 12:04:24 12:07:54 25° 267° (W) 12:11:27 145.865
AO-85 18 Jan 12:06:08 12:08:54 18° 113° (ESE) 12:11:47 145.980
ESTCUBE 1 18 Jan 12:08:19 12:12:48 64° 289° (WNW) 12:17:13 437.505/2401.250
Oscar 19 18 Jan 12:08:55 12:14:03 64° 69° (ENE) 12:19:13 437.125/150
QB50P2 18 Jan 12:15:59 12:18:48 17° 271° (W) 12:21:37 145.880/145.840
VELOX 1 18 Jan 12:22:10 12:26:04 31° 95° (E) 12:29:58 145.980
BEESAT 2 18 Jan 12:26:10 12:30:12 68° 315° (NW) 12:34:15 435.950
BUGSAT 1 18 Jan 12:27:43 12:31:44 58° 259° (WSW) 12:35:51 437.445
YUBILEINY 18 Jan 12:33:26 12:39:31 22° 286° (WNW) 12:45:33 435.215
RS-15 18 Jan 12:39:37 12:51:19 47° 350° (N) 13:02:33 29.354- 29.394
SPROUT 18 Jan 12:43:42 12:48:02 84° 104° (ESE) 12:52:21 437.525
AO-91 18 Jan 12:45:38 12:48:56 56° 258° (WSW) 12:52:24 145.960
PCSat 18 Jan 12:48:54 12:53:43 31° 327° (NNW) 12:58:33 145.827
DX 1 18 Jan 12:49:32 12:51:45 14° 88° (E) 12:53:58 434.975-435.025
DUCHIFAT 1 18 Jan 12:52:46 12:54:01 11° 275° (W) 12:55:17 145.980
AO-7 18 Jan 12:55:55 13:03:38 44° 53° (NE) 13:11:23 .
50 SAT 18 Jan 13:06:48 13:08:24 13° 91° (E) 13:10:00 437.505
Gurwin Techsat 1B 18 Jan 13:08:53 13:14:08 59° 259° (WSW) 13:19:25 435.225
ITAMSAT 1 18 Jan 13:10:08 13:13:46 20° 53° (NE) 13:17:23 435.822/435.867
BEESAT 3 18 Jan 13:25:48 13:28:34 18° 340° (NNW) 13:31:20 437.485
SO-50 18 Jan 13:43:59 13:48:39 70° 44° (NE) 13:53:24 436.795
AO-85 18 Jan 13:44:39 13:48:43 75° 315° (NW) 13:53:10 145.980
ESTCUBE 1 18 Jan 13:47:10 13:48:45 12° 309° (NW) 13:50:19 437.505/2401.250
MOZHAYETS 4 18 Jan 13:48:34 13:50:17 12° 84° (E) 13:51:59
Oscar 19 18 Jan 13:49:42 13:53:48 23° 269° (W) 13:57:56 437.125/150
VELOX 1 18 Jan 13:58:31 14:02:34 37° 294° (WNW) 14:06:37 145.980
BEESAT 2 18 Jan 14:05:32 14:08:36 20° 337° (NNW) 14:11:40 435.950
UKube-1 18 Jan 14:19:00 14:23:16 57° 102° (ESE) 14:27:31 .
SPROUT 18 Jan 14:20:48 14:23:21 16° 304° (WNW) 14:25:55 437.525
DX 1 18 Jan 14:24:10 14:28:32 83° 287° (WNW) 14:32:52 434.975-435.025
ITUPSAT 1 18 Jan 14:24:31 14:27:20 15° 87° (E) 14:30:07 437.325
DOVE 4 18 Jan 14:30:27 14:33:25 19° 60° (ENE) 14:36:20 437.250
PCSat 18 Jan 14:35:17 14:38:49 17° 353° (N) 14:42:22 145.827
50 SAT 18 Jan 14:37:22 14:40:23 45° 289° (WNW) 14:43:23 437.505
ITAMSAT 1 18 Jan 14:47:25 14:52:36 87° 255° (WSW) 14:57:49 435.822/435.867
AO-7 18 Jan 14:47:54 14:56:10 62° 256° (WSW) 15:04:30 .
M-CUBED/EXP-1 PRIME 18 Jan 14:52:46 14:56:58 51° 64° (ENE) 15:00:54 437.505
RS-15 18 Jan 14:54:56 15:06:43 53° 23° (NNE) 15:17:53 29.354- 29.394
BEESAT 18 Jan 15:05:19 15:09:40 33° 96° (E) 15:14:00 436.000
BEESAT 3 18 Jan 15:05:32 15:07:33 13° 4° (N) 15:09:33 437.485
CUBESAT XI-V 18 Jan 15:18:56 15:22:38 23° 91° (E) 15:26:17 437.345
MOZHAYETS 4 18 Jan 15:23:33 15:28:14 79° 104° (ESE) 15:32:51
SO-50 18 Jan 15:25:01 15:28:45 24° 244° (WSW) 15:32:32 436.795
AO-85 18 Jan 15:26:27 15:29:53 23° 339° (NNW) 15:33:33 145.980
XW-2B 18 Jan 15:34:55 15:36:38 13° 57° (ENE) 15:38:20 145.730 - 145.750
BEESAT 2 18 Jan 15:45:37 15:47:44 14° 1° (N) 15:49:50 435.950
UKube-1 18 Jan 15:55:41 15:58:57 21° 301° (WNW) 16:02:11 .
LilacSat-2 18 Jan 15:57:22 16:00:22 22° 63° (ENE) 16:03:21 437.200
CUTE-I 18 Jan 15:59:51 16:04:15 27° 58° (ENE) 16:08:40 437.470
ITUPSAT 1 18 Jan 16:00:58 16:05:49 87° 282° (WNW) 16:10:39 437.325
DX 1 18 Jan 16:01:48 16:04:03 14° 306° (NW) 16:06:18 434.975-435.025
XW-2C 18 Jan 16:03:26 16:06:29 23° 63° (ENE) 16:09:31 145.795 - 145.815
DOVE 4 18 Jan 16:06:30 16:10:46 61° 259° (W) 16:14:55 437.250
HO-68 18 Jan 16:06:52 16:12:42 28° 50° (NE) 16:18:32 435.675
PCSat 18 Jan 16:20:13 16:24:15 21° 19° (NNE) 16:28:17 145.827
M-CUBED/EXP-1 PRIME 18 Jan 16:28:07 16:31:32 22° 260° (W) 16:34:48 437.505
ITAMSAT 1 18 Jan 16:29:54 16:32:51 15° 273° (W) 16:35:49 435.822/435.867
XW-2F 18 Jan 16:41:59 16:45:41 49° 70° (ENE) 16:49:22 145.980 - 146.000
BEESAT 18 Jan 16:43:02 16:47:31 40° 295° (WNW) 16:51:58 436.000
BEESAT 3 18 Jan 16:43:07 16:46:22 23° 28° (NNE) 16:49:35 437.485
KAITUO 1B 18 Jan 16:45:41 16:49:15 41° 69° (ENE) 16:52:49 145.475/437.950
AO-7 18 Jan 16:46:14 16:50:45 15° 278° (W) 16:55:19 .
CUBEBUG 2 18 Jan 16:46:23 16:49:18 17° 56° (ENE) 16:52:16 437.445
XW-2D 18 Jan 16:48:55 16:52:43 64° 73° (ENE) 16:56:32 145.860 - 145.880
CUBESAT XI-V 18 Jan 16:55:47 17:00:19 53° 290° (WNW) 17:04:48 437.345
SEEDS 18 Jan 16:58:23 17:01:22 19° 60° (ENE) 17:04:22 437.485
UWE-3 18 Jan 16:58:39 17:01:04 15° 54° (NE) 17:03:31 435.000/436.395/437.385
MOZHAYETS 4 18 Jan 17:01:41 17:04:50 18° 304° (WNW) 17:07:59
NUDT-PHONESAT 18 Jan 17:02:05 17:05:45 58° 73° (ENE) 17:09:27 437.300
CUTE 1.7 + AOD 2 18 Jan 17:04:04 17:07:50 31° 65° (ENE) 17:11:37 437.475
XW-2B 18 Jan 17:06:22 17:10:13 87° 256° (WSW) 17:14:04 145.730 - 145.750
RS-15 18 Jan 17:08:20 17:20:14 81° 233° (SW) 17:31:29 29.354- 29.394
AO-85 18 Jan 17:08:51 17:11:49 17° 3° (N) 17:14:57 145.980
KKS-1 18 Jan 17:14:17 17:18:34 45° 99° (E) 17:22:50 437.445
BEESAT 2 18 Jan 17:23:40 17:26:50 21° 24° (NNE) 17:29:58 435.950
ZACube-1 18 Jan 17:28:48 17:31:26 15° 55° (NE) 17:34:05 437.345
LilacSat-2 18 Jan 17:30:41 17:34:23 44° 261° (W) 17:38:07 437.200
XW-2C 18 Jan 17:36:49 17:40:27 41° 262° (W) 17:44:07 145.795 - 145.815
AO-73 18 Jan 17:37:15 17:40:02 16° 56° (NE) 17:42:50 145.935
CUTE-I 18 Jan 17:38:44 17:43:59 60° 258° (WSW) 17:49:16 437.470
STARS 18 Jan 17:38:49 17:42:51 34° 96° (E) 17:46:53 437.465
ITUPSAT 1 18 Jan 17:39:58 17:42:59 17° 307° (NW) 17:45:59 437.325
HO-68 18 Jan 17:52:33 17:59:44 86° 252° (WSW) 18:06:57 435.675
PCSat 18 Jan 18:03:35 18:08:55 50° 43° (NE) 18:14:11 145.827
XW-2A 18 Jan 18:08:44 18:11:43 28° 67° (ENE) 18:14:43 145.665 - 145.685
Oscar 11 18 Jan 18:13:11 18:16:28 21° 60° (ENE) 18:19:45 .
XW-2F 18 Jan 18:17:21 18:20:02 18° 269° (W) 18:22:44 145.980 - 146.000
BEESAT 3 18 Jan 18:20:23 18:24:21 83° 230° (SW) 18:28:15 437.485
KAITUO 1B 18 Jan 18:20:31 18:23:24 20° 268° (W) 18:26:17 145.475/437.950
CUBEBUG 2 18 Jan 18:20:57 18:25:20 79° 257° (WSW) 18:29:55 437.445
AAUSAT CUBESAT 2 18 Jan 18:23:11 18:27:12 51° 70° (ENE) 18:31:14 437.432
XW-2D 18 Jan 18:25:09 18:27:17 14° 271° (W) 18:29:27 145.860 - 145.880
NO-84 18 Jan 18:27:09 18:29:45 29° 144° (SE) 18:32:17 435.350 FM
UWE-3 18 Jan 18:32:21 18:36:47 82° 74° (ENE) 18:41:22 435.000/436.395/437.385
SEEDS 18 Jan 18:32:28 18:36:39 62° 259° (W) 18:40:51 437.485
CUBESAT XI-V 18 Jan 18:35:59 18:36:41 10° 311° (NW) 18:37:23 437.345
NUDT-PHONESAT 18 Jan 18:37:44 18:39:57 15° 271° (W) 18:42:09 437.300
CUTE 1.7 + AOD 2 18 Jan 18:39:41 18:43:36 35° 264° (W) 18:47:33 437.475
STRAND 1 18 Jan 18:42:39 18:46:55 26° 92° (E) 18:51:11 437.568
AO-85 18 Jan 18:49:38 18:53:40 28° 27° (NNE) 18:57:57 145.980
KKS-1 18 Jan 18:51:12 18:54:57 27° 298° (WNW) 18:58:41 437.445
BEESAT 2 18 Jan 19:01:06 19:05:10 77° 47° (NE) 19:09:09 435.950
ZACube-1 18 Jan 19:02:34 19:07:01 88° 80° (E) 19:11:37 437.345
AO-73 18 Jan 19:11:10 19:15:37 87° 255° (WSW) 19:20:13 145.935
Max Valier Satellite 18 Jan 19:11:12 19:12:01 11° 55° (NE) 19:12:49 145.860
STARS 18 Jan 19:15:12 19:19:11 34° 296° (WNW) 19:23:10 437.465
RS-15 18 Jan 19:21:49 19:30:50 27° 259° (WSW) 19:39:32 29.354- 29.394
CUTE-I 18 Jan 19:24:34 19:25:10 10° 278° (W) 19:25:44 437.470
FO-29 18 Jan 19:27:34 19:32:03 27° 92° (E) 19:36:26 435.910
DELFI C3 18 Jan 19:28:01 19:31:02 22° 62° (ENE) 19:34:04 145.870
EO-88 18 Jan 19:35:56 19:37:33 13° 58° (ENE) 19:39:10 145.990 - 145.960
XW-2A 18 Jan 19:41:30 19:44:24 25° 265° (W) 19:47:18 145.665 - 145.685
HO-68 18 Jan 19:43:20 19:48:30 21° 273° (W) 19:53:42 435.675
PCSat 18 Jan 19:47:13 19:52:14 39° 244° (WSW) 19:57:13 145.827
Oscar 11 18 Jan 19:47:56 19:52:15 58° 259° (W) 19:56:35 .
BEESAT 3 18 Jan 19:59:35 20:01:12 12° 249° (WSW) 20:02:50 437.485
AAUSAT CUBESAT 2 18 Jan 19:59:51 20:02:56 20° 269° (W) 20:06:02 437.432
CUBEBUG 2 18 Jan 20:01:29 20:02:47 11° 277° (W) 20:04:07 437.445
NO-84 18 Jan 20:03:54 20:06:45 65° 343° (NNW) 20:09:34 435.350 FM
UWE-3 18 Jan 20:11:23 20:13:53 15° 274° (W) 20:16:25 435.000/436.395/437.385
STRAND 1 18 Jan 20:21:24 20:26:26 56° 292° (WNW) 20:31:27 437.568
AO-85 18 Jan 20:29:50 20:34:40 88° 52° (NE) 20:39:50 145.980
TIGRISAT 18 Jan 20:38:50 20:41:46 16° 87° (E) 20:44:42 435.000
BEESAT 2 18 Jan 20:39:46 20:42:23 17° 246° (WSW) 20:44:58 435.950
Max Valier Satellite 18 Jan 20:41:25 20:45:09 78° 74° (ENE) 20:48:55 145.860
ZACube-1 18 Jan 20:41:45 20:43:59 14° 275° (W) 20:46:16 437.345
AO-73 18 Jan 20:50:36 20:52:35 13° 275° (W) 20:54:35 145.935
UNISAT 6 18 Jan 20:52:49 20:56:32 23° 91° (E) 21:00:15 437.425
DELFI C3 18 Jan 21:01:47 21:05:32 45° 261° (W) 21:09:19 145.870
LO-87 18 Jan 21:03:24 21:05:37 16° 60° (ENE) 21:07:51 145.935 - 145.965
EO-88 18 Jan 21:06:58 21:10:38 81° 256° (WSW) 21:14:20 145.990 - 145.960
FO-29 18 Jan 21:12:24 21:17:34 51° 294° (WNW) 21:22:33 435.910
ESTCUBE 1 18 Jan 21:36:45 21:40:48 33° 65° (ENE) 21:44:53 437.505/2401.250
nSIGHT-1 18 Jan 21:36:58 21:39:11 18° 144° (SE) 21:41:25 .
ISS 18 Jan 21:39:24 21:41:18 15° 141° (SE) 21:43:14 437.550
NO-84 18 Jan 21:41:24 21:44:08 44° 4° (N) 21:46:54 435.350 FM
YUBILEINY 18 Jan 21:48:36 21:55:30 27° 77° (ENE) 22:02:23 435.215
PRISM 18 Jan 21:56:08 21:59:09 20° 92° (E) 22:02:11 437.425
STRAND 1 18 Jan 22:02:32 22:04:36 12° 312° (NW) 22:06:40 437.568
SPROUT 18 Jan 22:07:44 22:10:45 19° 59° (ENE) 22:13:46 437.525
AO-85 18 Jan 22:11:06 22:14:37 20° 246° (WSW) 22:18:17 145.980
TIGRISAT 18 Jan 22:14:18 22:19:01 80° 286° (WNW) 22:23:44 435.000
AIST 2D 18 Jan 22:16:17 22:18:17 14° 90° (E) 22:20:17 435.315
Max Valier Satellite 18 Jan 22:18:07 22:19:28 12° 273° (W) 22:20:49 145.860
UNISAT 6 18 Jan 22:28:57 22:33:33 56° 290° (WNW) 22:38:09 437.425
LO-87 18 Jan 22:35:07 22:38:38 56° 259° (W) 22:42:11 145.935 - 145.965
EO-79 18 Jan 22:50:46 22:52:54 13° 87° (E) 22:55:02 145.935-145.965
DUCHIFAT 1 18 Jan 22:53:49 22:55:00 11° 85° (E) 22:56:10 145.980
FO-29 18 Jan 23:00:00 23:01:26 11° 317° (NW) 23:02:50 435.910
nSIGHT-1 18 Jan 23:11:47 23:14:55 57° 163° (SSE) 23:18:03 .
ESTCUBE 1 18 Jan 23:13:23 23:17:35 36° 263° (W) 23:21:48 437.505/2401.250
ISS 18 Jan 23:14:04 23:17:14 50° 161° (SSE) 23:20:27 437.550
NO-84 18 Jan 23:18:35 23:21:25 75° 204° (SSW) 23:24:19 435.350 FM
POLYITAN 1 18 Jan 23:23:54 23:27:34 27° 94° (E) 23:31:13 437.675
VELOX 1 18 Jan 23:24:18 23:28:35 54° 69° (ENE) 23:32:53 145.980
PRISM 18 Jan 23:30:45 23:34:42 50° 291° (WNW) 23:38:38 437.425
50 SAT 18 Jan 23:37:18 23:38:21 11° 59° (ENE) 23:39:26 437.505
NANOSAT C BR1 18 Jan 23:41:57 23:45:53 35° 96° (E) 23:49:48 145.865
SPROUT 18 Jan 23:42:00 23:46:12 64° 257° (WSW) 23:50:28 437.525
YUBILEINY 18 Jan 23:42:25 23:51:17 86° 279° (W) 00:00:09 435.215
UKube-1 18 Jan 23:44:38 23:47:16 16° 56° (NE) 23:49:55 .
AIST 2D 18 Jan 23:48:21 23:51:46 51° 288° (WNW) 23:55:08 435.315
O/OREOS (USA 219) 18 Jan 23:49:09 23:51:12 13° 98° (E) 23:53:17 437.305
DX 1 18 Jan 23:49:40 23:53:13 25° 61° (ENE) 23:56:47 434.975-435.025
TIGRISAT 18 Jan 23:52:23 23:54:59 15° 306° (NW) 23:57:37 435.000
QB50P2 18 Jan 23:53:02 23:57:16 55° 101° (E) 00:01:29 145.880/145.840
BUGSAT 1 19 Jan 00:04:39 00:07:03 15° 88° (E) 00:09:27 437.445
UNISAT 6 19 Jan 00:08:00 00:09:18 11° 310° (NW) 00:10:37 437.425
Oscar 19 19 Jan 00:16:06 00:18:54 14° 86° (E) 00:21:41 437.125/150
EO-79 19 Jan 00:24:56 00:29:15 83° 287° (WNW) 00:33:32 145.935-145.965
DUCHIFAT 1 19 Jan 00:27:04 00:31:21 82° 103° (ESE) 00:35:37 145.980
AO-91 19 Jan 00:28:45 00:31:44 18° 92° (E) 00:34:55 145.960
BEESAT 19 Jan 00:42:08 00:44:35 14° 51° (NE) 00:47:03 436.000
nSIGHT-1 19 Jan 00:47:50 00:51:01 84° 183° (S) 00:54:13 .
ISS 19 Jan 00:50:21 00:53:39 85° 175° (S) 00:56:55 437.550
MOZHAYETS 4 19 Jan 00:54:47 00:58:26 23° 60° (ENE) 01:02:05
NO-84 19 Jan 00:56:30 00:58:10 14° 223° (SW) 00:59:52 435.350 FM
POLYITAN 1 19 Jan 00:59:26 01:03:29 41° 293° (WNW) 01:07:30 437.675
VELOX 1 19 Jan 01:02:01 01:05:21 21° 268° (W) 01:08:42 145.980
50 SAT 19 Jan 01:06:35 01:09:39 63° 258° (WSW) 01:12:44 437.505
NANOSAT C BR1 19 Jan 01:17:45 01:21:33 31° 296° (WNW) 01:25:19 145.865
UKube-1 19 Jan 01:18:26 01:22:45 82° 255° (WSW) 01:27:05 .
Gurwin Techsat 1B 19 Jan 01:19:17 01:24:11 36° 96° (E) 01:29:03 435.225
DX 1 19 Jan 01:25:01 01:29:11 46° 260° (W) 01:33:24 434.975-435.025
O/OREOS (USA 219) 19 Jan 01:25:23 01:29:55 87° 111° (ESE) 01:34:26 437.305
QB50P2 19 Jan 01:29:26 01:32:44 22° 300° (WNW) 01:36:01 145.880/145.840
ITUPSAT 1 19 Jan 01:35:58 01:40:14 33° 63° (ENE) 01:44:33 437.325
BUGSAT 1 19 Jan 01:38:40 01:42:55 76° 286° (WNW) 01:47:09 437.445
YUBILEINY 19 Jan 01:42:23 01:49:31 26° 306° (NW) 01:56:40 435.215
Oscar 19 19 Jan 01:53:48 01:59:03 83° 106° (ESE) 02:04:13 437.125/150
EO-79 19 Jan 02:02:11 02:04:19 14° 306° (NW) 02:06:28 145.935-145.965
DUCHIFAT 1 19 Jan 02:03:53 02:06:28 16° 304° (WNW) 02:09:02 145.980
AO-91 19 Jan 02:04:22 02:08:29 63° 288° (WNW) 02:13:04 145.960
BEESAT 19 Jan 02:16:50 02:21:34 72° 71° (ENE) 02:26:21 436.000
nSIGHT-1 19 Jan 02:24:01 02:27:03 42° 203° (SSW) 02:30:06 .
ISS 19 Jan 02:26:50 02:30:02 51° 200° (SSW) 02:33:14 437.550
CUBESAT XI-V 19 Jan 02:27:07 02:31:33 42° 67° (ENE) 02:35:58 437.345
MOZHAYETS 4 19 Jan 02:30:40 02:35:14 59° 259° (W) 02:39:52
AO-7 19 Jan 02:43:06 02:50:33 34° 94° (E) 02:57:54 .
KKS-1 19 Jan 02:43:34 02:45:56 14° 54° (NE) 02:48:18 437.445
ITAMSAT 1 19 Jan 02:55:04 02:59:02 22° 91° (E) 03:03:00 435.822/435.867
UKube-1 19 Jan 02:58:13 02:59:28 11° 274° (W) 03:00:45 .
Gurwin Techsat 1B 19 Jan 02:59:13 03:04:13 43° 296° (WNW) 03:09:12 435.225
O/OREOS (USA 219) 19 Jan 03:06:40 03:09:57 19° 319° (NW) 03:13:13 437.305
STARS 19 Jan 03:08:03 03:09:11 11° 50° (NE) 03:10:20 437.465
ITUPSAT 1 19 Jan 03:13:30 03:18:00 40° 262° (W) 03:22:32 437.325
BUGSAT 1 19 Jan 03:15:44 03:17:33 13° 306° (NW) 03:19:21 437.445
Oscar 19 19 Jan 03:34:03 03:37:47 20° 305° (NW) 03:41:30 437.125/150
AO-91 19 Jan 03:43:24 03:44:19 11° 305° (NW) 03:45:14 145.960
BEESAT 19 Jan 03:56:35 03:59:52 18° 271° (W) 04:03:09 436.000
DOVE 4 19 Jan 03:59:16 04:02:35 22° 92° (E) 04:05:59 437.250
nSIGHT-1 19 Jan 04:01:28 04:02:36 11° 221° (SW) 04:03:45 .
M-CUBED/EXP-1 PRIME 19 Jan 04:01:55 04:02:47 11° 93° (E) 04:03:39 437.505
ISS 19 Jan 04:04:00 04:05:59 15° 218° (SW) 04:07:58 437.550
CUBESAT XI-V 19 Jan 04:04:55 04:09:02 30° 266° (W) 04:13:10 437.345
KKS-1 19 Jan 04:17:23 04:21:48 83° 75° (ENE) 04:26:16 437.445
STRAND 1 19 Jan 04:28:08 04:30:35 14° 49° (NE) 04:33:01 437.568
ITAMSAT 1 19 Jan 04:33:49 04:39:00 68° 290° (WNW) 04:44:09 435.822/435.867
AO-7 19 Jan 04:35:38 04:44:00 73° 296° (WNW) 04:52:18 .
STARS 19 Jan 04:40:22 04:44:40 61° 70° (ENE) 04:49:00 437.465
Gurwin Techsat 1B 19 Jan 04:42:32 04:42:54 10° 317° (NW) 04:43:15 435.225
LilacSat-2 19 Jan 04:59:12 05:01:14 14° 88° (E) 05:03:16 437.200
XW-2C 19 Jan 05:04:27 05:06:36 15° 89° (E) 05:08:45 145.795 - 145.815
HO-68 19 Jan 05:16:01 05:19:27 14° 81° (E) 05:22:50 435.675
M-CUBED/EXP-1 PRIME 19 Jan 05:34:15 05:37:45 70° 293° (WNW) 05:41:03 437.505
DOVE 4 19 Jan 05:36:26 05:40:32 50° 290° (WNW) 05:44:48 437.250
XW-2F 19 Jan 05:42:17 05:45:41 31° 96° (E) 05:49:03 145.980 - 146.000
SO-50 19 Jan 05:43:54 05:47:45 29° 119° (ESE) 05:51:41 436.795
KAITUO 1B 19 Jan 05:44:53 05:48:05 26° 95° (E) 05:51:14 145.475/437.950
FO-29 19 Jan 05:45:20 05:50:52 30° 59° (ENE) 05:55:54 435.910
XW-2D 19 Jan 05:49:45 05:53:22 42° 98° (E) 05:56:57 145.860 - 145.880
CUTE-I 19 Jan 05:49:53 05:54:47 35° 96° (E) 05:59:39 437.470
KKS-1 19 Jan 05:56:37 05:58:58 14° 272° (W) 06:01:20 437.445
NUDT-PHONESAT 19 Jan 06:00:07 06:03:33 35° 97° (E) 06:06:57 437.300
STRAND 1 19 Jan 06:03:48 06:08:50 63° 70° (ENE) 06:13:54 437.568
CUBEBUG 2 19 Jan 06:06:37 06:09:48 18° 88° (E) 06:12:58 437.445
XW-2B 19 Jan 06:07:11 06:10:57 62° 101° (ESE) 06:14:40 145.730 - 145.750
SEEDS 19 Jan 06:11:27 06:13:57 15° 88° (E) 06:16:26 437.485
ITAMSAT 1 19 Jan 06:14:45 06:17:35 15° 311° (NW) 06:20:26 435.822/435.867
UWE-3 19 Jan 06:17:39 06:19:53 13° 85° (E) 06:22:06 435.000/436.395/437.385
STARS 19 Jan 06:18:19 06:21:24 19° 269° (W) 06:24:30 437.465
CUTE 1.7 + AOD 2 19 Jan 06:18:33 06:22:12 27° 94° (E) 06:25:49 437.475
AO-7 19 Jan 06:29:06 06:35:33 26° 320° (NW) 06:42:00 .
LilacSat-2 19 Jan 06:32:09 06:35:56 65° 288° (WNW) 06:39:41 437.200
XW-2C 19 Jan 06:37:26 06:41:10 61° 288° (WNW) 06:44:52 145.795 - 145.815
ZACube-1 19 Jan 06:46:37 06:48:52 13° 85° (E) 06:51:06 437.345
AO-73 19 Jan 06:54:43 06:57:09 14° 86° (E) 06:59:33 145.935
XW-2A 19 Jan 06:57:44 06:59:32 14° 90° (E) 07:01:18 145.665 - 145.685
HO-68 19 Jan 07:01:35 07:08:42 62° 103° (ESE) 07:15:47 435.675
XW-2F 19 Jan 07:16:31 07:19:43 27° 295° (WNW) 07:22:53 145.980 - 146.000
KAITUO 1B 19 Jan 07:18:45 07:22:04 31° 293° (WNW) 07:25:20 145.475/437.950
SO-50 19 Jan 07:23:34 07:28:00 55° 320° (NW) 07:32:31 436.795
XW-2D 19 Jan 07:24:23 07:27:19 21° 297° (WNW) 07:30:13 145.860 - 145.880
FO-29 19 Jan 07:28:53 07:35:40 67° 257° (WSW) 07:41:40 435.910
CUTE-I 19 Jan 07:29:55 07:34:56 43° 296° (WNW) 07:39:56 437.470
Oscar 11 19 Jan 07:30:05 07:33:08 18° 89° (E) 07:36:09 .
NUDT-PHONESAT 19 Jan 07:34:15 07:37:14 23° 296° (WNW) 07:40:12 437.300
AAUSAT CUBESAT 2 19 Jan 07:34:39 07:38:36 43° 98° (E) 07:42:31 437.432
RS-15 19 Jan 07:38:14 07:49:02 38° 108° (ESE) 07:59:39 29.354- 29.394
CUBEBUG 2 19 Jan 07:42:10 07:46:55 75° 287° (WNW) 07:51:40 437.445
XW-2B 19 Jan 07:42:21 07:44:42 16° 301° (WNW) 07:47:02 145.730 - 145.750
TIGRISAT 19 Jan 07:42:31 07:46:12 26° 61° (ENE) 07:49:59 435.000
STRAND 1 19 Jan 07:44:27 07:48:27 23° 269° (W) 07:52:28 437.568
SEEDS 19 Jan 07:45:57 07:50:07 69° 287° (WNW) 07:54:14 437.485
YUBILEINY 19 Jan 07:49:25 07:55:34 20° 48° (NE) 08:01:40 435.215
UWE-3 19 Jan 07:52:19 07:57:03 85° 104° (ESE) 08:01:44 435.000/436.395/437.385
CUTE 1.7 + AOD 2 19 Jan 07:54:12 07:58:08 38° 293° (WNW) 08:02:02 437.475
UNISAT 6 19 Jan 07:56:42 08:00:46 36° 65° (ENE) 08:04:57 437.425
O/OREOS (USA 219) 19 Jan 08:12:07 08:14:50 16° 37° (NE) 08:17:32 437.305
ZACube-1 19 Jan 08:21:12 08:25:50 89° 95° (E) 08:30:23 437.345
AO-7 19 Jan 08:22:36 08:25:30 12° 346° (NNW) 08:28:22 .
XW-2A 19 Jan 08:29:13 08:32:33 52° 288° (WNW) 08:35:48 145.665 - 145.685
AO-73 19 Jan 08:29:25 08:34:02 87° 284° (WNW) 08:38:33 145.935
DELFI C3 19 Jan 08:33:27 08:35:51 15° 89° (E) 08:38:15 145.870
HO-68 19 Jan 08:49:43 08:56:10 37° 304° (NW) 09:02:34 435.675
PRISM 19 Jan 08:50:12 08:53:46 30° 64° (ENE) 08:57:21 437.425
PCSat 19 Jan 08:54:56 08:56:36 11° 102° (ESE) 08:58:16 145.827
AIST 2D 19 Jan 08:55:55 08:57:53 14° 60° (ENE) 08:59:51 435.315
Oscar 11 19 Jan 09:05:22 09:09:40 61° 289° (WNW) 09:13:55 .
SO-50 19 Jan 09:05:52 09:09:23 21° 343° (NNW) 09:12:57 436.795
AAUSAT CUBESAT 2 19 Jan 09:10:31 09:13:50 24° 297° (WNW) 09:17:09 437.432
CUTE-I 19 Jan 09:13:05 09:13:43 10° 317° (NW) 09:14:22 437.470
QB50P2 19 Jan 09:17:34 09:19:40 14° 54° (NE) 09:21:46 145.880/145.840
TIGRISAT 19 Jan 09:18:23 09:22:40 47° 261° (W) 09:27:05 435.000
FO-29 19 Jan 09:18:29 09:21:42 14° 276° (W) 09:24:47 435.910
CUBEBUG 2 19 Jan 09:20:16 09:22:46 14° 306° (NW) 09:25:17 437.445
SEEDS 19 Jan 09:23:49 09:25:00 11° 307° (NW) 09:26:13 437.485
UWE-3 19 Jan 09:29:51 09:32:54 17° 303° (WNW) 09:35:56 435.000/436.395/437.385
UNISAT 6 19 Jan 09:33:30 09:37:30 33° 265° (W) 09:41:38 437.425
Max Valier Satellite 19 Jan 09:39:15 09:42:53 47° 100° (E) 09:46:28 145.860
YUBILEINY 19 Jan 09:45:41 09:54:26 66° 74° (ENE) 10:03:04 435.215
EO-79 19 Jan 09:47:53 09:51:06 21° 60° (ENE) 09:54:21 145.935-145.965
RS-15 19 Jan 09:48:06 10:00:30 85° 313° (NW) 10:12:37 29.354- 29.394
DUCHIFAT 1 19 Jan 09:49:52 09:52:45 18° 58° (ENE) 09:55:39 145.980
O/OREOS (USA 219) 19 Jan 09:50:38 09:55:07 68° 59° (ENE) 09:59:35 437.305
BEESAT 3 19 Jan 09:51:58 09:55:15 25° 118° (ESE) 09:58:33 437.485
ZACube-1 19 Jan 09:58:39 10:01:28 16° 304° (NW) 10:04:16 437.345
EO-88 19 Jan 10:03:15 10:06:52 59° 101° (E) 10:10:26 145.990 - 145.960
AO-73 19 Jan 10:06:55 10:09:35 15° 305° (NW) 10:12:13 145.935
DELFI C3 19 Jan 10:07:06 10:10:59 61° 287° (WNW) 10:14:51 145.870
AO-7 19 Jan 10:11:50 10:14:42 12° 14° (NNE) 10:17:35 .
POLYITAN 1 19 Jan 10:21:20 10:25:18 40° 67° (ENE) 10:29:20 437.675
PRISM 19 Jan 10:25:18 10:29:00 33° 263° (W) 10:32:42 437.425
AIST 2D 19 Jan 10:27:07 10:30:37 62° 258° (WSW) 10:34:08 435.315
PCSat 19 Jan 10:33:34 10:38:54 61° 122° (ESE) 10:44:15 145.827
BEESAT 2 19 Jan 10:35:00 10:37:59 20° 116° (ESE) 10:41:00 435.950
NANOSAT C BR1 19 Jan 10:38:52 10:42:58 52° 70° (ENE) 10:47:07 145.865
HO-68 19 Jan 10:39:15 10:41:58 13° 328° (NNW) 10:44:42 435.675
Oscar 11 19 Jan 10:44:00 10:44:56 11° 308° (NW) 10:45:53 .
SO-50 19 Jan 10:48:11 10:51:23 18° 7° (N) 10:54:38 436.795
QB50P2 19 Jan 10:50:32 10:54:46 83° 74° (ENE) 10:59:04 145.880/145.840
BUGSAT 1 19 Jan 10:59:14 11:02:23 22° 60° (ENE) 11:05:34 437.445
ESTCUBE 1 19 Jan 10:59:44 11:03:47 32° 95° (E) 11:07:47 437.505/2401.250
Gurwin Techsat 1B 19 Jan 11:08:10 11:11:56 20° 54° (NE) 11:15:43 435.225
Max Valier Satellite 19 Jan 11:13:43 11:16:24 19° 298° (WNW) 11:19:04 145.860
